Plymouth, NH

4:30 PM EDT on May 25, 2017 (GMT -0400)
Plymouth

Weather History for K1P1 - January, 2014

Change the Weather History Date:

Wednesday, January 22, 2014

  Actual Average (KLCI) Record (KLCI)
Temperature  
Mean Temperature 3 °F -  
Max Temperature 10 °F 24 °F 44 °F (1997)
Min Temperature -4 °F 5 °F -19 °F (1984)
Degree Days  
Heating Degree Days 62    
Moisture  
Dew Point -11 °F    
Average Humidity 56    
Maximum Humidity 66    
Minimum Humidity 43    
Precipitation  
Precipitation 0.00 in - - ()
Sea Level Pressure  
Sea Level Pressure 29.81 in    
Wind  
Wind Speed 11 mph (West)    
Max Wind Speed 21 mph    
Max Gust Speed 30 mph    
Visibility 10 miles    
Events      
Averages and records for this station are not official NWS values.
T = Trace of Precipitation, MM = Missing Value Source: NWS Daily Summary

Daily Weather History Graph

Daily Weather History Graph

Search for Another Location

Airport or City:

Trip Planner

Search our weather history database for the weather conditions in past years. The results will help you decide how hot, cold, wet, or windy it might be!

Date:

Astronomy

Jan. 22, 2014 Rise Set
Actual Time 7:13 AM EST 4:44 PM EST
Civil Twilight 6:41 AM EST 5:15 PM EST
Nautical Twilight 6:06 AM EST 5:50 PM EST
Astronomical Twilight 5:32 AM EST 6:24 PM EST
Moon 11:28 PM EST (1/22) 9:59 AM EST (1/22)
Length of Visible Light 10h 33m
Length of Day
9h 31m
Waning Gibbous, 65% of the Moon is Illuminated
Jan 22
Waning Gibbous
Jan 24
Last Quarter
Jan 30
New
Feb 6
First Quarter
Feb 14
Full

Hourly Weather History & Observations

Time (EST) Temp. Windchill Dew Point Humidity Pressure Visibility Wind Dir Wind Speed Gust Speed Precip Events Conditions
12:15 AM 1.4 °F -12.5 °F -8.5 °F 63% 29.94 in 10.0 mi West 8.1 mph - N/A   Scattered Clouds
12:35 AM 1.0 °F -11.7 °F -8.5 °F 64% 29.91 in 10.0 mi West 6.9 mph - N/A   Scattered Clouds
12:55 AM 0.5 °F -16.5 °F -9.0 °F 64% 29.91 in 10.0 mi West 11.5 mph 17.3 mph N/A   Scattered Clouds
1:15 AM 0.1 °F -14.0 °F -9.4 °F 64% 29.89 in 10.0 mi West 8.1 mph - N/A   Scattered Clouds
1:35 AM -0.4 °F -14.7 °F -9.6 °F 65% 29.89 in 10.0 mi West 8.1 mph - N/A   Clear
1:55 AM -0.8 °F -16.2 °F -9.8 °F 66% 29.89 in 10.0 mi West 9.2 mph 17.3 mph N/A   Clear
2:15 AM -1.3 °F -15.7 °F -10.3 °F 66% 29.88 in 10.0 mi West 8.1 mph - N/A   Clear
2:35 AM -1.7 °F -18.3 °F -10.7 °F 66% 29.88 in 10.0 mi West 10.4 mph 16.1 mph N/A   Clear
2:55 AM -2.0 °F -17.7 °F -11.2 °F 65% 29.87 in 10.0 mi West 9.2 mph - N/A   Clear
3:15 AM -2.2 °F -15.6 °F -11.4 °F 65% 29.87 in 10.0 mi West 6.9 mph 17.3 mph N/A   Clear
3:35 AM -2.4 °F -20.1 °F -11.7 °F 64% 29.85 in 10.0 mi West 11.5 mph 16.1 mph N/A   Clear
3:55 AM -2.7 °F -19.6 °F -12.3 °F 64% 29.85 in 10.0 mi West 10.4 mph 18.4 mph N/A   Clear
4:15 AM -2.9 °F -18.8 °F -12.5 °F 64% 29.87 in 10.0 mi West 9.2 mph 19.6 mph N/A   Clear
4:35 AM -3.1 °F -21.8 °F -12.5 °F 64% 29.86 in 10.0 mi West 12.7 mph 16.1 mph N/A   Clear
4:55 AM -3.3 °F -19.3 °F -13.0 °F 63% 29.85 in 10.0 mi West 9.2 mph 17.3 mph N/A   Clear
5:15 AM -3.3 °F -18.2 °F -13.0 °F 63% 29.85 in 10.0 mi West 8.1 mph 17.3 mph N/A   Clear
5:35 AM -3.5 °F -18.4 °F -13.5 °F 62% 29.84 in 10.0 mi West 8.1 mph 16.1 mph N/A   Clear
5:55 AM -3.8 °F -21.0 °F -13.7 °F 63% 29.84 in 10.0 mi West 10.4 mph 19.6 mph N/A   Clear
6:15 AM -4.0 °F -23.0 °F -13.9 °F 63% 29.85 in 10.0 mi West 12.7 mph 17.3 mph N/A   Clear
6:35 AM -4.0 °F -20.2 °F -14.1 °F 62% 29.86 in 10.0 mi West 9.2 mph 18.4 mph N/A   Clear
6:55 AM -4.2 °F -24.0 °F -14.6 °F 61% 29.85 in 10.0 mi West 13.8 mph 20.7 mph N/A   Clear
7:15 AM -4.5 °F -21.9 °F -14.8 °F 61% 29.85 in 10.0 mi West 10.4 mph 21.9 mph N/A   Clear
7:35 AM -4.7 °F -22.1 °F -15.0 °F 61% 29.85 in 10.0 mi West 10.4 mph 16.1 mph N/A   Clear
7:55 AM -4.5 °F -21.9 °F -15.2 °F 60% 29.85 in 10.0 mi West 10.4 mph 17.3 mph N/A   Clear
8:15 AM -4.9 °F -23.2 °F -15.3 °F 61% 29.84 in 10.0 mi West 11.5 mph 18.4 mph N/A   Clear
8:35 AM -4.9 °F -21.3 °F -15.3 °F 61% 29.84 in 10.0 mi West 9.2 mph 17.3 mph N/A   Clear
8:55 AM -4.0 °F -21.2 °F -15.0 °F 59% 29.83 in 10.0 mi West 10.4 mph 18.4 mph N/A   Clear
9:15 AM -2.7 °F -21.4 °F -14.8 °F 56% 29.83 in 10.0 mi West 12.7 mph 18.4 mph N/A   Clear
9:35 AM -1.5 °F -19.8 °F -14.6 °F 54% 29.82 in 10.0 mi West 12.7 mph 20.7 mph N/A   Clear
9:55 AM -0.4 °F -18.4 °F -14.3 °F 52% 29.81 in 10.0 mi West 12.7 mph 20.7 mph N/A   Clear
10:15 AM 0.5 °F -14.6 °F -14.1 °F 50% 29.80 in 10.0 mi West 9.2 mph 18.4 mph N/A   Clear
10:35 AM 1.2 °F -17.1 °F -13.4 °F 51% 29.79 in 10.0 mi West 13.8 mph 21.9 mph N/A   Clear
10:55 AM 2.1 °F -16.6 °F -13.2 °F 49% 29.76 in 10.0 mi WNW 15.0 mph 20.7 mph N/A   Clear
11:15 AM 3.0 °F -14.8 °F -12.5 °F 49% 29.74 in 10.0 mi West 13.8 mph 19.6 mph N/A   Clear
11:35 AM 3.2 °F -16.5 °F -12.3 °F 49% 29.72 in 10.0 mi West 17.3 mph 26.5 mph N/A   Clear
11:55 AM 4.5 °F -15.4 °F -11.6 °F 48% 29.71 in 10.0 mi West 18.4 mph 23.0 mph N/A   Clear
12:15 PM 5.4 °F -13.1 °F -11.2 °F 47% 29.69 in 7.0 mi West 16.1 mph 26.5 mph N/A   Clear
12:35 PM 6.3 °F -11.3 °F -10.7 °F 46% 29.69 in 10.0 mi West 15.0 mph 25.3 mph N/A   Clear
12:55 PM 7.0 °F -9.8 °F -10.5 °F 45% 29.68 in 10.0 mi West 13.8 mph 23.0 mph N/A   Clear
1:15 PM 7.7 °F -12.2 °F -9.6 °F 45% 29.68 in 7.0 mi West 20.7 mph 27.6 mph N/A   Clear
1:35 PM 8.6 °F -9.5 °F -9.4 °F 44% 29.67 in 10.0 mi West 17.3 mph 29.9 mph N/A   Clear
1:55 PM 9.0 °F -9.0 °F -9.4 °F 43% 29.68 in 10.0 mi West 17.3 mph 27.6 mph N/A   Clear
2:15 PM 9.5 °F -7.2 °F -8.7 °F 44% 29.68 in 10.0 mi West 15.0 mph 25.3 mph N/A   Clear
2:35 PM 10.0 °F -5.2 °F -8.7 °F 43% 29.69 in 10.0 mi West 12.7 mph 19.6 mph N/A   Clear
2:55 PM 10.0 °F -6.5 °F -8.5 °F 43% 29.70 in 10.0 mi West 15.0 mph 24.2 mph N/A   Clear
3:15 PM 10.0 °F -5.2 °F -8.3 °F 43% 29.71 in 10.0 mi West 12.7 mph 23.0 mph N/A   Clear
3:35 PM 9.5 °F -5.9 °F -8.5 °F 44% 29.73 in 10.0 mi West 12.7 mph 21.9 mph N/A   Clear
3:55 PM 9.0 °F -7.9 °F -8.5 °F 45% 29.74 in 10.0 mi West 15.0 mph 21.9 mph N/A   Clear
4:15 PM 7.9 °F -8.6 °F -8.3 °F 48% 29.75 in 10.0 mi West 13.8 mph 19.6 mph N/A   Clear
4:35 PM 7.3 °F -9.3 °F -8.5 °F 48% 29.75 in 10.0 mi West 13.8 mph 21.9 mph N/A   Clear
4:55 PM 6.8 °F -8.6 °F -8.5 °F 50% 29.76 in 10.0 mi WNW 11.5 mph 17.3 mph N/A   Clear
5:15 PM 6.3 °F -10.0 °F -8.5 °F 51% 29.77 in 10.0 mi WNW 12.7 mph 20.7 mph N/A   Clear
5:35 PM 5.9 °F -10.5 °F -8.5 °F 52% 29.77 in 10.0 mi WNW 12.7 mph 19.6 mph N/A   Clear
5:55 PM 5.4 °F -11.8 °F -8.9 °F 52% 29.77 in 10.0 mi West 13.8 mph 23.0 mph N/A   Clear
6:15 PM 4.6 °F -12.8 °F -9.0 °F 53% 29.78 in 10.0 mi West 13.8 mph 23.0 mph N/A   Clear
6:35 PM 4.1 °F -14.1 °F -9.4 °F 54% 29.79 in 10.0 mi West 15.0 mph 23.0 mph N/A   Clear
6:55 PM 3.6 °F -16.0 °F -9.2 °F 55% 29.80 in 10.0 mi West 17.3 mph 27.6 mph N/A   Clear
7:15 PM 3.0 °F -14.8 °F -9.4 °F 56% 29.81 in 10.0 mi West 13.8 mph 23.0 mph N/A   Clear
7:35 PM 2.3 °F -15.7 °F -9.6 °F 58% 29.81 in 10.0 mi West 13.8 mph 24.2 mph N/A   Clear
7:55 PM 1.8 °F -18.4 °F -10.1 °F 58% 29.82 in 10.0 mi West 17.3 mph 28.8 mph N/A   Clear
8:15 PM 1.4 °F -18.2 °F -10.3 °F 58% 29.83 in 10.0 mi West 16.1 mph 25.3 mph N/A   Clear
8:35 PM 1.0 °F -17.3 °F -10.8 °F 58% 29.84 in 10.0 mi West 13.8 mph 28.8 mph N/A   Clear
8:55 PM 0.7 °F -15.4 °F -11.2 °F 57% 29.85 in 10.0 mi West 10.4 mph 20.7 mph N/A   Clear
9:15 PM 0.5 °F -18.0 °F -11.4 °F 57% 29.86 in 10.0 mi West 13.8 mph 20.7 mph N/A   Clear
9:35 PM 0.5 °F -17.3 °F -11.6 °F 57% 29.86 in 10.0 mi West 12.7 mph 21.9 mph N/A   Clear
9:55 PM 0.5 °F -16.5 °F -11.7 °F 56% 29.86 in 10.0 mi West 11.5 mph 20.7 mph N/A   Clear
10:15 PM 0.5 °F -14.6 °F -11.7 °F 56% 29.87 in 10.0 mi West 9.2 mph 16.1 mph N/A   Clear
10:35 PM 0.3 °F -17.5 °F -11.9 °F 56% 29.87 in 10.0 mi WNW 12.7 mph 18.4 mph N/A   Clear
10:55 PM 0.5 °F -18.0 °F -11.6 °F 57% 29.87 in 10.0 mi WNW 13.8 mph 24.2 mph N/A   Clear
11:15 PM 0.5 °F -15.6 °F -11.6 °F 57% 29.87 in 10.0 mi West 10.4 mph 21.9 mph N/A   Clear
11:35 PM 0.5 °F -18.7 °F -11.4 °F 57% 29.88 in 10.0 mi West 15.0 mph 21.9 mph N/A   Clear
11:55 PM 0.5 °F -16.5 °F -11.7 °F 56% 29.88 in 10.0 mi West 11.5 mph 24.2 mph N/A   Clear